Regional Weather Roundup
Issued by NWS

Home | Current Version | Previous Version | Graphics & Text | Print | Product List | Glossary On
Versions: 1 2 3 4 5 6 7 8 9 10 11 12 13 14 15 16 17 18 19 20 21 22 23 24 25 26 27 28 29 30 31 32 33 34 35 36 37 38 39 40 41 42 43 44 45 46 47 48 49 50
000
ASUS43 KIND 201309
RWRIN

WEATHER ROUNDUP FOR INDIANA
NATIONAL WEATHER SERVICE INDIANAPOLIS IN
900 AM EDT SAT SEP 20 2014

NOTE: "FAIR" INDICATES FEW OR NO CLOUDS BELOW 12,000 FEET WITH NO
SIGNIFICANT WEATHER AND/OR OBSTRUCTIONS TO VISIBILITY.

* - STATION DOES NOT REPORT WEATHER SUCH AS PRECIPITATION OR FOG.

+ - STATION NOT QUALITY CONTROLLED BY THE NATIONAL WEATHER SERVICE.
    USE DATA WITH CAUTION...ESPECIALLY DEWPOINT AND RELATIVE
    HUMIDITY OBSERVATIONS.

INZ001>003-010>013-019-020-201400-
NORTHWEST INDIANA

CITY           SKY/WX    TMP DP  RH WIND       PRES   REMARKS
GARY /AIRPORT/ PTSUNNY   64  55  72 S10       29.95F
KNOX *+        MOSUNNY   60  53  78 SW8       29.98S
LA PORTE +     PTSUNNY   58  54  85 SW10      29.97F
MICHIGAN CITY+ PTSUNNY   61  52  72 S12G20    29.95F
MONTICELLO +   MOSUNNY   59  56  88 SW7       30.01R
RENSSELAER +   PTSUNNY   61  57  88 S8        29.99F
VALPARAISO     PTSUNNY   60  54  80 SW12G18   29.97F

$$

LMZ046-743>745-201400-
SOUTHERN LAKE MICHIGAN

STATION/POSITION TIME  TEMP WIND        PRES
                       AIR  DIR/SP/G
                 (UTC) (F)  (DEG/KT/KT) (MB)
MICHIGAN CITY    1300   64  180/ 20/ 25   N/A

$$

INZ004-005-014>016-021>024-201400-
NORTH CENTRAL INDIANA

CITY           SKY/WX    TMP DP  RH WIND       PRES   REMARKS
GOSHEN         PTSUNNY   61  54  77 SW9       29.99R
LOGANSPORT +   MOSUNNY   59  54  82 S7        30.03R
PERU/GRISSOM   SUNNY     62  61  97 SW12      30.02S
ROCHESTER +    MOSUNNY   63  55  77 SW9       30.02R
SOUTH BEND     PTSUNNY   61  53  75 SW13      29.97F
WARSAW +       MOSUNNY   61  54  77 SW6       30.01R

$$

INZ006>009-017-018-025>027-201400-
NORTHEAST INDIANA

CITY           SKY/WX    TMP DP  RH WIND       PRES   REMARKS
ANGOLA *+      SUNNY     57  54  88 SW7       29.99S
AUBURN +       MOSUNNY   59  52  77 CALM      30.02S
FORT WAYNE     PTSUNNY   58  54  86 SW10      30.02F
HUNTINGTON +   SUNNY     58  55  88 SW5       30.02S

$$

INZ028-029-035-036-043>045-051>053-201400-
WEST CENTRAL INDIANA

CITY           SKY/WX    TMP DP  RH WIND       PRES   REMARKS
GREENCASTLE +  SUNNY     55  55 100 CALM      30.06S FOG
LAFAYETTE      MOSUNNY   59  55  87 CALM      30.02S
TERRE HAUTE    SUNNY     58  55  90 S3        30.06R FOG

$$

INZ030>032-037>040-046>048-054>057-064-065-201400-
CENTRAL INDIANA

CITY           SKY/WX    TMP DP  RH WIND       PRES   REMARKS
ANDERSON       MOSUNNY   61  55  82 S8        30.07
CP ATTERBURY + MOSUNNY   54  52  94 CALM      30.08S FOG
FRANKFORT +    SUNNY     59  59 100 S6        30.04S
GREENWOOD *+   MOSUNNY   59  57  94 SE5       30.07
INDIANAPOLIS   PTSUNNY   59  55  87 SW3       30.05S
-EAGLE CREEK   SUNNY     57  53  86 S3        30.05F
KOKOMO *+      SUNNY     59  54  82 S8        30.03F
MARION +       SUNNY     58  53  85 S8        30.04S
MT COMFORT *+  MOSUNNY   57  55  94 S7        30.06F
SHELBYVILLE    MOSUNNY   62  57  83 S8        30.07R
ZIONSVILLE +   SUNNY     57  55  91 S6        30.06S

$$

INZ033-034-041-042-049-050-058-059-201400-
EAST CENTRAL INDIANA

CITY           SKY/WX    TMP DP  RH WIND       PRES   REMARKS
MUNCIE         MOSUNNY   62  55  77 S6        30.05F

$$

INZ060-061-067>069-081>083-085>088-201400-
SOUTHWEST INDIANA

CITY           SKY/WX    TMP DP  RH WIND       PRES   REMARKS
EVANSVILLE     PTSUNNY   63  59  87 CALM      30.09R
WASHINGTON +   SUNNY     62  61  94 S3        30.07R

$$

INZ062-063-066-070>080-084-089>092-201400-
SOUTH CENTRAL AND SOUTHEAST INDIANA

CITY           SKY/WX    TMP DP  RH WIND       PRES   REMARKS
BEDFORD +      MOSUNNY   61  55  82 S3        30.09
BLOOMINGTON    MOSUNNY   58  55  90 CALM      30.08R FOG
NORTH VERNON + MOSUNNY   63  63 100 S8        30.09
SEYMOUR +      MOSUNNY   59  57  94 CALM      30.08  FOG

$$



USA.gov is the U.S. government's official web portal to all federal, state and local government web resources and services.